Time,TemperatureF,DewpointF,PressureIn,WindDirection,WindDirectionDegrees,WindSpeedMPH,WindSpeedGustMPH,Humidity,HourlyPrecipIn,Conditions,Clouds,dailyrainin,SolarRadiationWatts/m^2,SoftwareType,DateUTC
2013-05-29 00:02:00,74.0,67.0,-100.00,SSE,150,14.0,24.0,80,0.00,,,0.00,0.000000,,2013-05-29 05:02:00,
2013-05-29 00:12:00,74.0,67.0,-100.00,SSE,150,14.0,24.0,80,0.00,,,0.00,0.000000,,2013-05-29 05:12:00,
2013-05-29 00:22:00,74.0,67.0,-100.00,SSE,150,14.0,24.0,80,0.00,,,0.00,0.000000,,2013-05-29 05:22:00,
2013-05-29 00:32:00,74.0,67.0,-100.00,SSE,150,14.0,24.0,80,0.00,,,0.00,0.000000,,2013-05-29 05:32:00,
2013-05-29 00:52:00,73.0,68.0,-100.00,SSE,157,12.0,24.0,83,0.00,,,0.00,0.000000,,2013-05-29 05:52:00,
2013-05-29 01:01:00,73.0,68.0,-100.00,SSE,157,12.0,24.0,83,0.00,,,0.00,0.000000,,2013-05-29 06:01:00,
2013-05-29 01:12:00,73.0,68.0,-100.00,SSE,157,12.0,24.0,83,0.00,,,0.00,0.000000,,2013-05-29 06:12:00,
2013-05-29 01:21:00,73.0,68.0,-100.00,SSE,157,12.0,24.0,83,0.00,,,0.00,0.000000,,2013-05-29 06:21:00,
2013-05-29 01:31:00,73.0,68.0,-100.00,SSE,157,12.0,24.0,83,0.00,,,0.00,0.000000,,2013-05-29 06:31:00,
2013-05-29 01:52:00,73.0,69.0,-100.00,SSE,157,14.0,23.0,86,0.00,,,0.00,0.000000,,2013-05-29 06:52:00,
2013-05-29 02:01:00,73.0,69.0,-100.00,SSE,157,14.0,23.0,86,0.00,,,0.00,0.000000,,2013-05-29 07:01:00,
2013-05-29 02:11:00,73.0,69.0,-100.00,SSE,157,14.0,23.0,86,0.00,,,0.00,0.000000,,2013-05-29 07:11:00,
2013-05-29 02:21:00,73.0,69.0,-100.00,SSE,157,14.0,23.0,86,0.00,,,0.00,0.000000,,2013-05-29 07:21:00,
2013-05-29 02:34:00,73.0,69.0,-100.00,SSE,157,14.0,23.0,86,0.00,,,0.00,0.000000,,2013-05-29 07:34:00,
2013-05-29 03:02:00,72.0,68.0,-100.00,SSE,161,16.0,28.0,88,0.00,,,0.00,0.000000,,2013-05-29 08:02:00,
2013-05-29 03:11:00,72.0,68.0,-100.00,SSE,161,16.0,28.0,88,0.00,,,0.00,0.000000,,2013-05-29 08:11:00,
2013-05-29 03:22:00,72.0,68.0,-100.00,SSE,161,16.0,28.0,88,0.00,,,0.00,0.000000,,2013-05-29 08:22:00,
2013-05-29 03:32:00,72.0,68.0,-100.00,SSE,161,16.0,28.0,88,0.00,,,0.00,0.000000,,2013-05-29 08:32:00,
2013-05-29 03:52:00,71.0,68.0,-100.00,SSE,152,18.0,29.0,89,0.00,,,0.00,0.000000,,2013-05-29 08:52:00,
2013-05-29 04:01:00,71.0,68.0,-100.00,SSE,152,18.0,29.0,89,0.00,,,0.00,0.000000,,2013-05-29 09:01:00,
2013-05-29 04:11:00,71.0,68.0,-100.00,SSE,152,18.0,29.0,89,0.00,,,0.00,0.000000,,2013-05-29 09:11:00,
2013-05-29 04:21:00,71.0,68.0,-100.00,SSE,152,18.0,29.0,89,0.00,,,0.00,0.000000,,2013-05-29 09:21:00,
2013-05-29 04:33:00,71.0,68.0,-100.00,SSE,152,18.0,29.0,89,0.00,,,0.00,0.000000,,2013-05-29 09:33:00,
2013-05-29 04:52:00,71.0,68.0,-100.00,SSE,159,21.0,43.0,89,0.00,,,0.00,0.000000,,2013-05-29 09:52:00,
2013-05-29 05:03:00,71.0,68.0,-100.00,SSE,159,21.0,43.0,89,0.00,,,0.00,0.000000,,2013-05-29 10:03:00,
2013-05-29 05:12:00,71.0,68.0,-100.00,SSE,159,21.0,43.0,89,0.00,,,0.00,0.000000,,2013-05-29 10:12:00,
2013-05-29 05:22:00,71.0,68.0,-100.00,SSE,159,21.0,43.0,89,0.00,,,0.00,0.000000,,2013-05-29 10:22:00,
2013-05-29 05:32:00,71.0,68.0,-100.00,SSE,159,21.0,43.0,89,0.00,,,0.00,0.000000,,2013-05-29 10:32:00,
2013-05-29 05:53:00,72.0,68.0,-100.00,South,174,14.0,34.0,86,0.00,,,0.00,0.000000,,2013-05-29 10:53:00,
2013-05-29 06:02:00,72.0,68.0,-100.00,South,174,14.0,34.0,86,0.00,,,0.00,0.000000,,2013-05-29 11:02:00,
2013-05-29 06:12:00,72.0,68.0,-100.00,South,174,14.0,34.0,86,0.00,,,0.00,0.000000,,2013-05-29 11:12:00,
2013-05-29 06:22:00,72.0,68.0,-100.00,South,174,14.0,34.0,86,0.00,,,0.00,0.000000,,2013-05-29 11:22:00,
2013-05-29 06:32:00,72.0,68.0,-100.00,South,174,14.0,34.0,86,0.00,,,0.00,0.000000,,2013-05-29 11:32:00,
2013-05-29 07:01:00,72.0,67.0,-100.00,SSE,168,13.0,27.0,85,0.00,,,0.00,0.000000,,2013-05-29 12:01:00,
2013-05-29 07:11:00,72.0,67.0,-100.00,SSE,168,13.0,27.0,85,0.00,,,0.00,0.000000,,2013-05-29 12:11:00,
2013-05-29 07:22:00,72.0,67.0,-100.00,SSE,168,13.0,27.0,85,0.00,,,0.00,0.000000,,2013-05-29 12:22:00,
2013-05-29 07:32:00,72.0,67.0,-100.00,SSE,168,13.0,27.0,85,0.00,,,0.00,0.000000,,2013-05-29 12:32:00,
2013-05-29 07:52:00,73.0,68.0,-100.00,SSE,158,14.0,28.0,85,0.00,,,0.00,9.000000,,2013-05-29 12:52:00,
2013-05-29 08:02:00,73.0,68.0,-100.00,SSE,158,14.0,28.0,85,0.00,,,0.00,9.000000,,2013-05-29 13:02:00,
2013-05-29 08:11:00,73.0,68.0,-100.00,SSE,158,14.0,28.0,85,0.00,,,0.00,9.000000,,2013-05-29 13:11:00,
2013-05-29 08:21:00,73.0,68.0,-100.00,SSE,158,14.0,28.0,85,0.00,,,0.00,9.000000,,2013-05-29 13:21:00,
2013-05-29 08:32:00,73.0,68.0,-100.00,SSE,158,14.0,28.0,85,0.00,,,0.00,9.000000,,2013-05-29 13:32:00,
2013-05-29 08:53:00,74.0,68.0,-100.00,SSE,160,13.0,26.0,83,0.00,,,0.00,41.000000,,2013-05-29 13:53:00,
2013-05-29 09:02:00,74.0,68.0,-100.00,SSE,160,13.0,26.0,83,0.00,,,0.00,41.000000,,2013-05-29 14:02:00,
2013-05-29 09:11:00,74.0,68.0,-100.00,SSE,160,13.0,26.0,83,0.00,,,0.00,41.000000,,2013-05-29 14:11:00,
2013-05-29 09:21:00,74.0,68.0,-100.00,SSE,160,13.0,26.0,83,0.00,,,0.00,41.000000,,2013-05-29 14:21:00,
2013-05-29 09:32:00,74.0,68.0,-100.00,SSE,160,13.0,26.0,83,0.00,,,0.00,41.000000,,2013-05-29 14:32:00,
2013-05-29 09:52:00,74.0,68.0,-100.00,South,184,11.0,19.0,82,0.00,,,0.00,32.000000,,2013-05-29 14:52:00,
2013-05-29 10:01:00,74.0,68.0,-100.00,South,184,11.0,19.0,82,0.00,,,0.00,32.000000,,2013-05-29 15:01:00,
2013-05-29 10:11:00,74.0,68.0,-100.00,South,184,11.0,19.0,82,0.00,,,0.00,32.000000,,2013-05-29 15:11:00,
2013-05-29 10:21:00,74.0,68.0,-100.00,South,184,11.0,19.0,82,0.00,,,0.00,32.000000,,2013-05-29 15:21:00,
2013-05-29 10:33:00,74.0,68.0,-100.00,South,184,11.0,19.0,82,0.00,,,0.00,32.000000,,2013-05-29 15:33:00,
2013-05-29 10:53:00,74.0,69.0,-100.00,South,173,9.0,20.0,85,0.00,,,0.00,45.000000,,2013-05-29 15:53:00,
2013-05-29 11:03:00,74.0,69.0,-100.00,South,173,9.0,20.0,85,0.00,,,0.00,45.000000,,2013-05-29 16:03:00,
2013-05-29 11:12:00,74.0,69.0,-100.00,South,173,9.0,20.0,85,0.00,,,0.00,45.000000,,2013-05-29 16:12:00,
2013-05-29 11:22:00,74.0,69.0,-100.00,South,173,9.0,20.0,85,0.00,,,0.00,45.000000,,2013-05-29 16:22:00,
2013-05-29 11:32:00,74.0,69.0,-100.00,South,173,9.0,20.0,85,0.00,,,0.00,45.000000,,2013-05-29 16:32:00,
2013-05-29 11:52:00,74.0,69.0,-100.00,SSE,167,8.0,17.0,84,0.00,,,0.00,54.000000,,2013-05-29 16:52:00,
2013-05-29 12:02:00,74.0,69.0,-100.00,SSE,167,8.0,17.0,84,0.00,,,0.00,54.000000,,2013-05-29 17:02:00,
2013-05-29 12:12:00,74.0,69.0,-100.00,SSE,167,8.0,17.0,84,0.00,,,0.00,54.000000,,2013-05-29 17:12:00,
2013-05-29 12:22:00,74.0,69.0,-100.00,SSE,167,8.0,17.0,84,0.00,,,0.00,54.000000,,2013-05-29 17:22:00,
2013-05-29 12:32:00,74.0,69.0,-100.00,SSE,167,8.0,17.0,84,0.00,,,0.00,54.000000,,2013-05-29 17:32:00,
2013-05-29 13:01:00,73.0,71.0,-100.00,SSE,155,7.0,16.0,93,0.02,,,0.02,115.000000,,2013-05-29 18:01:00,
2013-05-29 13:13:00,73.0,71.0,-100.00,SSE,155,7.0,16.0,93,0.02,,,0.02,115.000000,,2013-05-29 18:13:00,
2013-05-29 13:22:00,73.0,71.0,-100.00,SSE,155,7.0,16.0,93,0.02,,,0.02,115.000000,,2013-05-29 18:22:00,
2013-05-29 13:32:00,73.0,71.0,-100.00,SSE,155,7.0,16.0,93,0.02,,,0.02,115.000000,,2013-05-29 18:32:00,
2013-05-29 13:52:00,75.0,71.0,-100.00,SSE,147,8.0,15.0,87,0.00,,,0.02,208.000000,,2013-05-29 18:52:00,
2013-05-29 14:02:00,75.0,71.0,-100.00,SSE,147,8.0,15.0,87,0.00,,,0.02,208.000000,,2013-05-29 19:02:00,
2013-05-29 14:11:00,75.0,71.0,-100.00,SSE,147,8.0,15.0,87,0.00,,,0.02,208.000000,,2013-05-29 19:11:00,
2013-05-29 14:21:00,75.0,71.0,-100.00,SSE,147,8.0,15.0,87,0.00,,,0.02,208.000000,,2013-05-29 19:21:00,
2013-05-29 14:32:00,75.0,71.0,-100.00,SSE,147,8.0,15.0,87,0.00,,,0.02,208.000000,,2013-05-29 19:32:00,
2013-05-29 15:03:00,80.0,71.0,-100.00,SSE,156,13.0,20.0,73,0.00,,,0.02,369.000000,,2013-05-29 20:03:00,
2013-05-29 15:11:00,80.0,71.0,-100.00,SSE,156,13.0,20.0,73,0.00,,,0.02,369.000000,,2013-05-29 20:11:00,
2013-05-29 15:22:00,80.0,71.0,-100.00,SSE,156,13.0,20.0,73,0.00,,,0.02,369.000000,,2013-05-29 20:22:00,
2013-05-29 15:33:00,80.0,71.0,-100.00,SSE,156,13.0,20.0,73,0.00,,,0.02,369.000000,,2013-05-29 20:33:00,
2013-05-29 16:02:00,80.0,70.0,-100.00,SSE,158,15.0,25.0,72,0.11,,,0.13,362.000000,,2013-05-29 21:02:00,
2013-05-29 16:12:00,80.0,70.0,-100.00,SSE,158,15.0,25.0,72,0.11,,,0.13,362.000000,,2013-05-29 21:12:00,
2013-05-29 16:22:00,80.0,70.0,-100.00,SSE,158,15.0,25.0,72,0.11,,,0.13,362.000000,,2013-05-29 21:22:00,
2013-05-29 16:33:00,80.0,70.0,-100.00,SSE,158,15.0,25.0,72,0.11,,,0.13,362.000000,,2013-05-29 21:33:00,
2013-05-29 16:53:00,82.0,69.0,-100.00,SSE,163,15.0,25.0,66,0.00,,,0.13,468.000000,,2013-05-29 21:53:00,
2013-05-29 17:03:00,82.0,69.0,-100.00,SSE,163,15.0,25.0,66,0.00,,,0.13,468.000000,,2013-05-29 22:03:00,
2013-05-29 17:12:00,82.0,69.0,-100.00,SSE,163,15.0,25.0,66,0.00,,,0.13,468.000000,,2013-05-29 22:12:00,
2013-05-29 17:23:00,82.0,69.0,-100.00,SSE,163,15.0,25.0,66,0.00,,,0.13,468.000000,,2013-05-29 22:23:00,
2013-05-29 17:33:00,82.0,69.0,-100.00,SSE,163,15.0,25.0,66,0.00,,,0.13,468.000000,,2013-05-29 22:33:00,
2013-05-29 17:53:00,82.0,68.0,-100.00,SSE,161,15.0,29.0,63,0.00,,,0.13,455.000000,,2013-05-29 22:53:00,
2013-05-29 18:02:00,82.0,68.0,-100.00,SSE,161,15.0,29.0,63,0.00,,,0.13,455.000000,,2013-05-29 23:02:00,
2013-05-29 18:12:00,82.0,68.0,-100.00,SSE,161,15.0,29.0,63,0.00,,,0.13,455.000000,,2013-05-29 23:12:00,
2013-05-29 18:22:00,82.0,68.0,-100.00,SSE,161,15.0,29.0,63,0.00,,,0.13,455.000000,,2013-05-29 23:22:00,
2013-05-29 18:33:00,82.0,68.0,-100.00,SSE,161,15.0,29.0,63,0.00,,,0.13,455.000000,,2013-05-29 23:33:00,
2013-05-29 19:01:00,81.0,69.0,-100.00,SSE,154,17.0,27.0,66,0.00,,,0.13,206.000000,,2013-05-30 00:01:00,
2013-05-29 19:11:00,81.0,69.0,-100.00,SSE,154,17.0,27.0,66,0.00,,,0.13,206.000000,,2013-05-30 00:11:00,
2013-05-29 19:21:00,81.0,69.0,-100.00,SSE,154,17.0,27.0,66,0.00,,,0.13,206.000000,,2013-05-30 00:21:00,
2013-05-29 19:31:00,81.0,69.0,-100.00,SSE,154,17.0,27.0,66,0.00,,,0.13,206.000000,,2013-05-30 00:31:00,
2013-05-29 19:52:00,79.0,68.0,-100.00,SSE,152,17.0,32.0,70,0.00,,,0.13,170.000000,,2013-05-30 00:52:00,
2013-05-29 20:01:00,79.0,68.0,-100.00,SSE,152,17.0,32.0,70,0.00,,,0.13,170.000000,,2013-05-30 01:01:00,
2013-05-29 20:11:00,79.0,68.0,-100.00,SSE,152,17.0,32.0,70,0.00,,,0.13,170.000000,,2013-05-30 01:11:00,
2013-05-29 20:21:00,79.0,68.0,-100.00,SSE,152,17.0,32.0,70,0.00,,,0.13,170.000000,,2013-05-30 01:21:00,
2013-05-29 20:32:00,79.0,68.0,-100.00,SSE,152,17.0,32.0,70,0.00,,,0.13,170.000000,,2013-05-30 01:32:00,
2013-05-29 20:52:00,77.0,69.0,-100.00,SSE,155,16.0,31.0,76,0.00,,,0.13,20.000000,,2013-05-30 01:52:00,
2013-05-29 21:01:00,77.0,69.0,-100.00,SSE,155,16.0,31.0,76,0.00,,,0.13,20.000000,,2013-05-30 02:01:00,
2013-05-29 21:11:00,77.0,69.0,-100.00,SSE,155,16.0,31.0,76,0.00,,,0.13,20.000000,,2013-05-30 02:11:00,
2013-05-29 21:21:00,77.0,69.0,-100.00,SSE,155,16.0,31.0,76,0.00,,,0.13,20.000000,,2013-05-30 02:21:00,
2013-05-29 21:32:00,77.0,69.0,-100.00,SSE,155,16.0,31.0,76,0.00,,,0.13,20.000000,,2013-05-30 02:32:00,
2013-05-29 22:02:00,76.0,69.0,-100.00,SSE,150,18.0,28.0,78,0.00,,,0.13,0.000000,,2013-05-30 03:02:00,
2013-05-29 22:11:00,76.0,69.0,-100.00,SSE,150,18.0,28.0,78,0.00,,,0.13,0.000000,,2013-05-30 03:11:00,
2013-05-29 22:21:00,76.0,69.0,-100.00,SSE,150,18.0,28.0,78,0.00,,,0.13,0.000000,,2013-05-30 03:21:00,
2013-05-29 22:33:00,76.0,69.0,-100.00,SSE,150,18.0,28.0,78,0.00,,,0.13,0.000000,,2013-05-30 03:33:00,
2013-05-29 22:53:00,75.0,69.0,-100.00,SSE,155,18.0,30.0,81,0.00,,,0.13,0.000000,,2013-05-30 03:53:00,
2013-05-29 23:03:00,75.0,69.0,-100.00,SSE,155,18.0,30.0,81,0.00,,,0.13,0.000000,,2013-05-30 04:03:00,
2013-05-29 23:13:00,75.0,69.0,-100.00,SSE,155,18.0,30.0,81,0.00,,,0.13,0.000000,,2013-05-30 04:13:00,
2013-05-29 23:23:00,75.0,69.0,-100.00,SSE,155,18.0,30.0,81,0.00,,,0.13,0.000000,,2013-05-30 04:23:00,
2013-05-29 23:33:00,75.0,69.0,-100.00,SSE,155,18.0,30.0,81,0.00,,,0.13,0.000000,,2013-05-30 04:33:00,